| time (UTC) | temp F | wind direction | speed knots | gust knots | rain 1hr in | rain 24hr in | rain mn in | humidity % | barometer mb |
| 20260506103016 | 50 | 198 | 0.9 | 2.6 | 0.00 | 0.00 | 0.00 | 87 | 1009.3 |
| 20260506102508 | 50 | 203 | 0.9 | 2.6 | 0.00 | 0.00 | 0.00 | 88 | 1009.6 |
| 20260506102011 | 49 | 222 | 0.9 | 2.6 | 0.00 | 0.00 | 0.00 | 87 | 1009.5 |
| 20260506101519 | 49 | 197 | 0.0 | 3.5 | 0.00 | 0.00 | 0.00 | 87 | 1009.4 |
| 20260506101006 | 49 | 196 | 0.0 | 3.5 | 0.00 | 0.00 | 0.00 | 87 | 1009.2 |
| 20260506100503 | 49 | 165 | 1.7 | 2.6 | 0.00 | 0.00 | 0.00 | 87 | 1009.3 |
| 20260506100006 | 49 | 195 | 0.0 | 1.7 | 0.00 | 0.00 | 0.00 | 87 | 1009.4 |
| 20260506095503 | 49 | 261 | 0.0 | 1.7 | 0.00 | 0.00 | 0.00 | 87 | 1009.4 |
| 20260506095011 | 49 | 275 | 0.0 | 1.7 | 0.00 | 0.00 | 0.00 | 87 | 1009.5 |
| 20260506094512 | 49 | 275 | 0.0 | 1.7 | 0.00 | 0.00 | 0.00 | 87 | 1009.4 |
| 20260506094005 | 48 | 274 | 0.0 | 1.7 | 0.00 | 0.00 | 0.00 | 87 | 1009.4 |
| 20260506093503 | 48 | 255 | 0.0 | 0.0 | 0.00 | 0.00 | 0.00 | 86 | 1009.3 |
| 20260506093018 | 48 | 255 | 0.0 | 1.7 | 0.00 | 0.00 | 0.00 | 86 | 1009.2 |
| 20260506092507 | 48 | 255 | 0.0 | 1.7 | 0.00 | 0.00 | 0.00 | 86 | 1009.2 |
| 20260506092010 | 49 | 255 | 0.0 | 1.7 | 0.00 | 0.00 | 0.00 | 86 | 1009.3 |
| 20260506091518 | 48 | 155 | 0.0 | 1.7 | 0.00 | 0.00 | 0.00 | 87 | 1009.2 |
| 20260506091010 | 48 | 170 | 0.0 | 1.7 | 0.00 | 0.00 | 0.00 | 86 | 1009.2 |
| 20260506090509 | 48 | 215 | 0.0 | 1.7 | 0.00 | 0.00 | 0.00 | 85 | 1009.2 |
| 20260506090025 | 48 | 252 | 0.0 | 2.6 | 0.00 | 0.00 | 0.00 | 85 | 1009.1 |
| 20260506085503 | 49 | 174 | 0.0 | 2.6 | 0.00 | 0.00 | 0.00 | 85 | 1009.2 |
| 20260506085003 | 49 | 188 | 1.7 | 2.6 | 0.00 | 0.00 | 0.00 | 85 | 1009.1 |
| 20260506084509 | 49 | 224 | 0.9 | 3.5 | 0.00 | 0.00 | 0.00 | 86 | 1009.0 |
| 20260506084006 | 49 | 209 | 1.7 | 3.5 | 0.00 | 0.00 | 0.00 | 85 | 1009.1 |
| 20260506083504 | 49 | 214 | 2.6 | 3.5 | 0.00 | 0.00 | 0.00 | 85 | 1009.0 |
| 20260506083017 | 49 | 218 | 1.7 | 3.5 | 0.00 | 0.00 | 0.00 | 84 | 1008.9 |
| 20260506082506 | 49 | 203 | 1.7 | 3.5 | 0.00 | 0.00 | 0.00 | 83 | 1008.9 |
| 20260506082009 | 50 | 203 | 0.9 | 2.6 | 0.00 | 0.00 | 0.00 | 83 | 1008.9 |
| 20260506081515 | 50 | 216 | 1.7 | 2.6 | 0.00 | 0.00 | 0.00 | 83 | 1009.1 |
| 20260506081011 | 51 | 200 | 1.7 | 3.5 | 0.00 | 0.00 | 0.00 | 82 | 1009.1 |
| 20260506080506 | 51 | 209 | 1.7 | 3.5 | 0.00 | 0.00 | 0.00 | 82 | 1009.0 |
| 20260506073509 | 52 | 219 | 1.7 | 4.3 | 0.00 | 0.00 | 0.00 | 84 | 1008.8 |
| 20260506073010 | 51 | 203 | 1.7 | 4.3 | 0.00 | 0.00 | 0.00 | 86 | 1008.8 |
| 20260506072508 | 51 | 205 | 1.7 | 4.3 | 0.00 | 0.00 | 0.00 | 84 | 1008.6 |
| 20260506072009 | 51 | 226 | 1.7 | 3.5 | 0.00 | 0.00 | 0.00 | 85 | 1008.5 |
| 20260506071518 | 50 | 198 | 0.9 | 5.2 | 0.00 | 0.00 | 0.00 | 85 | 1008.5 |
| 20260506071007 | 50 | 232 | 2.6 | 5.2 | 0.00 | 0.00 | 0.00 | 86 | 1008.5 |
| 20260506070505 | 49 | 207 | 1.7 | 4.3 | 0.00 | 0.00 | 0.00 | 84 | 1008.5 |
| 20260506062506 | 50 | 207 | 2.6 | 6.1 | 0.00 | 0.00 | 0.00 | 84 | 1008.4 |
| 20260506062007 | 50 | 200 | 3.5 | 6.1 | 0.00 | 0.00 | 0.00 | 83 | 1008.5 |
| 20260506061512 | 50 | 187 | 3.5 | 5.2 | 0.00 | 0.00 | 0.00 | 83 | 1008.5 |
| 20260506061007 | 50 | 211 | 2.6 | 6.1 | 0.00 | 0.00 | 0.00 | 82 | 1008.5 |
| 20260506060507 | 50 | 159 | 3.5 | 6.1 | 0.00 | 0.00 | 0.00 | 81 | 1008.5 |
| 20260506051003 | 53 | 211 | 1.7 | 4.3 | 0.00 | 0.00 | 0.00 | 79 | 1008.6 |
| 20260506050503 | 54 | 217 | 2.6 | 6.1 | 0.00 | 0.00 | 0.00 | 77 | 1008.6 |
| 20260506045008 | 53 | 222 | 2.6 | 5.2 | 0.00 | 0.00 | 0.00 | 85 | 1008.6 |
| 20260506044520 | 51 | 227 | 0.9 | 5.2 | 0.00 | 0.00 | 0.00 | 83 | 1008.7 |
| 20260506044007 | 51 | 238 | 0.9 | 6.1 | 0.00 | 0.00 | 0.00 | 83 | 1008.7 |
| 20260506043508 | 51 | 188 | 4.3 | 6.1 | 0.00 | 0.00 | 0.00 | 82 | 1008.6 |
| 20260506043023 | 51 | 207 | 0.9 | 3.5 | 0.00 | 0.00 | 0.00 | 83 | 1008.5 |
| 20260506042503 | 51 | 181 | 1.7 | 3.5 | 0.00 | 0.00 | 0.00 | 83 | 1008.6 |
| 20260506042004 | 50 | 259 | 0.0 | 5.2 | 0.00 | 0.00 | 0.00 | 83 | 1008.7 |
| 20260506041507 | 50 | 222 | 0.9 | 5.2 | 0.00 | 0.00 | 0.00 | 82 | 1008.6 |
| 20260506041004 | 50 | 203 | 0.9 | 5.2 | 0.00 | 0.00 | 0.00 | 82 | 1008.7 |
| 20260506040503 | 51 | 174 | 3.5 | 5.2 | 0.00 | 0.00 | 0.00 | 81 | 1008.7 |
| 20260506040013 | 51 | 159 | 2.6 | 3.5 | 0.00 | 0.00 | 0.00 | 81 | 1008.6 |
| 20260506035506 | 51 | 204 | 0.9 | 3.5 | 0.00 | 0.00 | 0.00 | 81 | 1008.6 |
| 20260506035007 | 51 | 186 | 1.7 | 3.5 | 0.00 | 0.00 | 0.00 | 80 | 1008.6 |
| 20260506034528 | 52 | 145 | 0.9 | 3.5 | 0.00 | 0.00 | 0.00 | 79 | 1008.6 |
| 20260506034013 | 52 | 150 | 0.9 | 4.3 | 0.00 | 0.00 | 0.00 | 79 | 1008.5 |
| 20260506033511 | 52 | 217 | 0.0 | 5.2 | 0.00 | 0.00 | 0.00 | 80 | 1008.5 |
| 20260506033023 | 52 | 228 | 1.7 | 5.2 | 0.00 | 0.00 | 0.00 | 80 | 1008.5 |
| 20260506032508 | 52 | 190 | 2.6 | 6.1 | 0.00 | 0.00 | 0.00 | 79 | 1008.5 |
| 20260506032008 | 52 | 215 | 3.5 | 6.1 | 0.00 | 0.00 | 0.00 | 80 | 1008.4 |
| 20260506031524 | 52 | 230 | 1.7 | 5.2 | 0.00 | 0.00 | 0.00 | 79 | 1008.3 |
| 20260506031004 | 53 | 211 | 2.6 | 6.1 | 0.00 | 0.00 | 0.00 | 78 | 1008.3 |
| 20260506030507 | 54 | 196 | 1.7 | 6.1 | 0.00 | 0.00 | 0.00 | 79 | 1008.2 |
| 20260506030010 | 53 | 217 | 1.7 | 5.2 | 0.00 | 0.00 | 0.00 | 80 | 1008.5 |
| 20260506025509 | 53 | 216 | 1.7 | 4.3 | 0.00 | 0.00 | 0.00 | 80 | 1008.5 |
| 20260506025007 | 53 | 183 | 1.7 | 4.3 | 0.00 | 0.00 | 0.00 | 78 | 1008.5 |
| 20260506024515 | 53 | 201 | 0.9 | 3.5 | 0.00 | 0.00 | 0.00 | 77 | 1008.4 |
| 20260506024007 | 53 | 225 | 0.9 | 3.5 | 0.00 | 0.00 | 0.00 | 76 | 1008.5 |
| 20260506023508 | 54 | 204 | 1.7 | 4.3 | 0.00 | 0.00 | 0.00 | 77 | 1008.5 |
| 20260506023022 | 53 | 238 | 1.7 | 4.3 | 0.00 | 0.00 | 0.00 | 77 | 1008.5 |
| 20260506022507 | 53 | 228 | 1.7 | 4.3 | 0.00 | 0.00 | 0.00 | 76 | 1008.4 |
| 20260506022008 | 54 | 203 | 0.9 | 4.3 | 0.00 | 0.00 | 0.00 | 76 | 1008.3 |
| 20260506021524 | 54 | 207 | 0.9 | 4.3 | 0.00 | 0.00 | 0.00 | 76 | 1008.6 |
| 20260506021007 | 54 | 194 | 1.7 | 4.3 | 0.00 | 0.00 | 0.00 | 76 | 1008.7 |
| 20260506020514 | 54 | 199 | 0.0 | 5.2 | 0.00 | 0.00 | 0.00 | 75 | 1008.7 |
| 20260506020026 | 54 | 177 | 2.6 | 5.2 | 0.00 | 0.00 | 0.00 | 76 | 1008.6 |
| 20260506015505 | 54 | 219 | 2.6 | 5.2 | 0.00 | 0.00 | 0.00 | 75 | 1008.6 |
| 20260506015007 | 54 | 205 | 2.6 | 3.5 | 0.00 | 0.00 | 0.00 | 74 | 1008.6 |
| 20260506014511 | 54 | 207 | 0.9 | 4.3 | 0.00 | 0.00 | 0.00 | 76 | 1008.6 |
| 20260506014005 | 55 | 228 | 0.9 | 4.3 | 0.00 | 0.00 | 0.00 | 74 | 1008.8 |
| 20260506013506 | 55 | 200 | 2.6 | 5.2 | 0.00 | 0.00 | 0.00 | 74 | 1008.7 |
| 20260506013034 | 55 | 260 | 0.9 | 5.2 | 0.00 | 0.00 | 0.00 | 74 | 1008.6 |
| 20260506012507 | 55 | 197 | 2.6 | 4.3 | 0.00 | 0.00 | 0.00 | 73 | 1008.5 |
| 20260506012010 | 56 | 191 | 1.7 | 3.5 | 0.00 | 0.00 | 0.00 | 72 | 1008.4 |
| 20260506011525 | 57 | 192 | 0.9 | 3.5 | 0.00 | 0.00 | 0.00 | 73 | 1008.2 |
| 20260506011008 | 57 | 200 | 1.7 | 5.2 | 0.00 | 0.00 | 0.00 | 72 | 1008.2 |
| 20260506010508 | 57 | 202 | 2.6 | 6.1 | 0.00 | 0.00 | 0.00 | 74 | 1008.2 |
| 20260506010027 | 56 | 199 | 2.6 | 6.1 | 0.00 | 0.00 | 0.00 | 74 | 1008.2 |
| 20260506005507 | 55 | 205 | 1.7 | 5.2 | 0.00 | 0.00 | 0.00 | 75 | 1008.2 |
| 20260506005010 | 55 | 215 | 3.5 | 5.2 | 0.00 | 0.00 | 0.00 | 73 | 1008.1 |
| 20260506004526 | 56 | 204 | 1.7 | 3.5 | 0.00 | 0.00 | 0.00 | 71 | 1008.1 |
| 20260506004003 | 56 | 234 | 0.0 | 5.2 | 0.00 | 0.00 | 0.00 | 73 | 1008.2 |
| 20260506003509 | 56 | 213 | 2.6 | 5.2 | 0.00 | 0.00 | 0.00 | 71 | 1008.1 |
| 20260506003016 | 57 | 215 | 1.7 | 4.3 | 0.00 | 0.00 | 0.00 | 70 | 1008.1 |
| 20260506002504 | 57 | 226 | 0.9 | 7.8 | 0.00 | 0.00 | 0.00 | 69 | 1008.0 |
| 20260506002009 | 58 | 248 | 0.9 | 7.8 | 0.00 | 0.00 | 0.00 | 69 | 1007.9 |
| 20260506001520 | 58 | 255 | 3.5 | 7.8 | 0.00 | 0.00 | 0.00 | 71 | 1007.7 |
| 20260506001009 | 57 | 203 | 2.6 | 7.0 | 0.00 | 0.00 | 0.00 | 70 | 1007.5 |
| 20260506000510 | 58 | 219 | 2.6 | 7.0 | 0.00 | 0.00 | 0.00 | 67 | 1007.4 |
| 20260506000020 | 60 | 203 | 5.2 | 7.0 | 0.00 | 0.00 | 0.00 | 63 | 1007.1 |
| 20260505235509 | 62 | 213 | 3.5 | 6.1 | 0.00 | 0.00 | 0.00 | 63 | 1007.1 |
| 20260505235012 | 63 | 193 | 2.6 | 6.1 | 0.00 | 0.00 | 0.00 | 63 | 1007.0 |
| 20260505234526 | 64 | 236 | 2.6 | 6.1 | 0.00 | 0.00 | 0.00 | 61 | 1007.0 |
| 20260505234007 | 65 | 216 | 0.9 | 4.3 | 0.00 | 0.00 | 0.00 | 60 | 1006.8 |
| 20260505233506 | 66 | 242 | 2.6 | 4.3 | 0.00 | 0.00 | 0.00 | 59 | 1006.9 |
| 20260505233016 | 66 | 210 | 0.9 | 3.5 | 0.00 | 0.00 | 0.00 | 59 | 1006.8 |
| 20260505232507 | 66 | 237 | 0.0 | 6.1 | 0.00 | 0.00 | 0.00 | 60 | 1006.9 |
| 20260505232007 | 65 | 245 | 1.7 | 9.6 | 0.00 | 0.00 | 0.00 | 61 | 1006.9 |
| 20260505231518 | 64 | 331 | 2.6 | 11.3 | 0.00 | 0.00 | 0.00 | 62 | 1006.8 |
| 20260505231005 | 63 | 311 | 4.3 | 11.3 | 0.00 | 0.00 | 0.00 | 64 | 1006.9 |
| 20260505230509 | 61 | 193 | 5.2 | 14.8 | 0.00 | 0.00 | 0.00 | 67 | 1007.2 |
| 20260505230020 | 60 | 61 | 4.3 | 17.4 | 0.00 | 0.00 | 0.00 | 67 | 1005.9 |
| 20260505225506 | 60 | 167 | 9.6 | 17.4 | 0.00 | 0.00 | 0.00 | 67 | 1005.4 |
| 20260505225007 | 60 | 156 | 8.7 | 20.0 | 0.00 | 0.00 | 0.00 | 66 | 1005.3 |
| 20260505224524 | 60 | 258 | 10.4 | 20.0 | 0.00 | 0.00 | 0.00 | 66 | 1005.2 |
| 20260505224011 | 60 | 224 | 10.4 | 19.1 | 0.00 | 0.00 | 0.00 | 66 | 1005.1 |
| 20260505223508 | 61 | 184 | 11.3 | 19.1 | 0.00 | 0.00 | 0.00 | 66 | 1005.0 |
| 20260505223036 | 61 | 215 | 12.2 | 21.7 | 0.00 | 0.00 | 0.00 | 66 | 1005.1 |
| 20260505222512 | 60 | 209 | 11.3 | 21.7 | 0.00 | 0.00 | 0.00 | 66 | 1004.9 |
| 20260505222011 | 60 | 221 | 10.4 | 20.0 | 0.00 | 0.00 | 0.00 | 67 | 1004.8 |
| 20260505221514 | 60 | 228 | 11.3 | 20.0 | 0.00 | 0.00 | 0.00 | 67 | 1004.9 |
| 20260505221010 | 60 | 289 | 9.6 | 21.7 | 0.00 | 0.00 | 0.00 | 67 | 1004.8 |
| 20260505220506 | 60 | 198 | 10.4 | 21.7 | 0.00 | 0.00 | 0.00 | 67 | 1004.7 |
| 20260505220031 | 60 | 203 | 10.4 | 20.9 | 0.00 | 0.00 | 0.00 | 68 | 1004.7 |
| 20260505215508 | 59 | 184 | 10.4 | 20.9 | 0.00 | 0.00 | 0.00 | 68 | 1004.6 |
| 20260505215007 | 60 | 192 | 12.2 | 20.9 | 0.00 | 0.00 | 0.00 | 67 | 1004.6 |
| 20260505214532 | 60 | 148 | 12.2 | 20.9 | 0.00 | 0.00 | 0.00 | 67 | 1004.7 |
| 20260505214007 | 61 | 207 | 14.8 | 22.6 | 0.00 | 0.00 | 0.00 | 65 | 1004.8 |
| 20260505213514 | 62 | 171 | 14.8 | 24.3 | 0.00 | 0.00 | 0.00 | 65 | 1004.7 |
| 20260505213024 | 62 | 219 | 13.9 | 24.3 | 0.00 | 0.00 | 0.00 | 65 | 1004.9 |
| 20260505212509 | 62 | 191 | 11.3 | 23.5 | 0.00 | 0.00 | 0.00 | 65 | 1004.6 |
| 20260505212012 | 62 | 210 | 12.2 | 23.5 | 0.00 | 0.00 | 0.00 | 65 | 1004.6 |
| 20260505211528 | 62 | 207 | 10.4 | 20.9 | 0.00 | 0.00 | 0.00 | 64 | 1004.5 |
| 20260505211007 | 62 | 207 | 11.3 | 20.0 | 0.00 | 0.00 | 0.00 | 64 | 1004.7 |
| 20260505210510 | 62 | 190 | 10.4 | 19.1 | 0.00 | 0.00 | 0.00 | 64 | 1004.6 |
| 20260505210019 | 62 | 224 | 13.0 | 19.1 | 0.00 | 0.00 | 0.00 | 64 | 1004.6 |
| 20260505205511 | 62 | 210 | 10.4 | 19.1 | 0.00 | 0.00 | 0.00 | 65 | 1004.6 |
| 20260505205008 | 61 | 220 | 11.3 | 20.9 | 0.00 | 0.00 | 0.00 | 66 | 1004.4 |
| 20260505204523 | 61 | 210 | 12.2 | 20.9 | 0.00 | 0.00 | 0.00 | 66 | 1004.4 |
| 20260505204008 | 61 | 173 | 12.2 | 18.2 | 0.00 | 0.00 | 0.00 | 66 | 1004.5 |
| 20260505203507 | 61 | 219 | 13.0 | 24.3 | 0.00 | 0.00 | 0.00 | 67 | 1004.7 |
| 20260505203004 | 61 | 199 | 12.2 | 24.3 | 0.00 | 0.00 | 0.00 | 67 | 1004.7 |
| 20260505202504 | 61 | 194 | 13.9 | 19.1 | 0.00 | 0.00 | 0.00 | 67 | 1004.7 |
| 20260505202004 | 61 | 195 | 13.0 | 19.1 | 0.00 | 0.00 | 0.00 | 67 | 1004.6 |
| 20260505201510 | 61 | 213 | 13.0 | 19.1 | 0.00 | 0.00 | 0.00 | 68 | 1004.6 |
| 20260505201004 | 60 | 181 | 13.0 | 19.1 | 0.00 | 0.00 | 0.00 | 67 | 1004.6 |
| 20260505200504 | 61 | 181 | 13.0 | 19.1 | 0.00 | 0.00 | 0.00 | 67 | 1004.8 |
| 20260505200016 | 61 | 185 | 13.0 | 19.1 | 0.00 | 0.00 | 0.00 | 67 | 1004.9 |
| 20260505195504 | 61 | 182 | 13.0 | 21.7 | 0.00 | 0.00 | 0.00 | 66 | 1005.0 |
| 20260505195003 | 62 | 201 | 14.8 | 20.9 | 0.00 | 0.00 | 0.00 | 66 | 1005.1 |
| 20260505194511 | 62 | 187 | 12.2 | 18.2 | 0.00 | 0.00 | 0.00 | 65 | 1005.2 |
| 20260505194007 | 62 | 186 | 11.3 | 18.2 | 0.00 | 0.00 | 0.00 | 66 | 1005.2 |
| 20260505193504 | 61 | 182 | 11.3 | 17.4 | 0.00 | 0.00 | 0.00 | 67 | 1005.2 |
| 20260505193005 | 61 | 188 | 11.3 | 17.4 | 0.00 | 0.00 | 0.00 | 68 | 1005.2 |
| 20260505192503 | 60 | 190 | 11.3 | 16.5 | 0.00 | 0.00 | 0.00 | 69 | 1005.4 |
| 20260505192005 | 60 | 190 | 11.3 | 14.8 | 0.00 | 0.00 | 0.00 | 69 | 1005.5 |
| 20260505191521 | 60 | 195 | 10.4 | 14.8 | 0.00 | 0.00 | 0.00 | 68 | 1005.7 |
| 20260505191003 | 60 | 203 | 9.6 | 14.8 | 0.00 | 0.00 | 0.00 | 70 | 1005.8 |
| 20260505190504 | 59 | 217 | 8.7 | 14.8 | 0.00 | 0.00 | 0.00 | 71 | 1005.9 |
| 20260505190012 | 57 | 197 | 8.7 | 14.8 | 0.00 | 0.00 | 0.00 | 73 | 1006.3 |
| 20260505185507 | 57 | 188 | 9.6 | 14.8 | 0.00 | 0.00 | 0.00 | 73 | 1006.3 |
| 20260505185004 | 57 | 194 | 11.3 | 16.5 | 0.00 | 0.00 | 0.00 | 73 | 1006.4 |
| 20260505184512 | 57 | 161 | 12.2 | 16.5 | 0.00 | 0.00 | 0.00 | 73 | 1006.5 |
| 20260505184008 | 57 | 197 | 12.2 | 15.6 | 0.00 | 0.00 | 0.00 | 72 | 1006.5 |
| 20260505183503 | 58 | 201 | 11.3 | 15.6 | 0.00 | 0.00 | 0.00 | 71 | 1006.5 |
| 20260505183012 | 58 | 183 | 10.4 | 14.8 | 0.00 | 0.00 | 0.00 | 71 | 1006.4 |
| 20260505182510 | 58 | 195 | 10.4 | 13.9 | 0.00 | 0.00 | 0.00 | 71 | 1006.4 |
| 20260505182002 | 58 | 206 | 9.6 | 13.9 | 0.00 | 0.00 | 0.00 | 71 | 1006.4 |
| 20260505181504 | 58 | 188 | 9.6 | 13.0 | 0.00 | 0.00 | 0.00 | 73 | 1006.5 |
| 20260505181005 | 57 | 197 | 9.6 | 15.6 | 0.00 | 0.00 | 0.00 | 74 | 1006.4 |
| 20260505180503 | 56 | 190 | 11.3 | 15.6 | 0.00 | 0.00 | 0.00 | 74 | 1006.5 |
| 20260505180007 | 56 | 183 | 12.2 | 15.6 | 0.00 | 0.00 | 0.00 | 73 | 1006.5 |
| 20260505175506 | 56 | 224 | 11.3 | 14.8 | 0.00 | 0.00 | 0.00 | 73 | 1006.5 |
| 20260505175007 | 57 | 189 | 11.3 | 15.6 | 0.00 | 0.00 | 0.00 | 72 | 1006.6 |
| 20260505174514 | 57 | 171 | 11.3 | 15.6 | 0.00 | 0.00 | 0.00 | 73 | 1006.6 |
| 20260505174008 | 57 | 190 | 12.2 | 14.8 | 0.00 | 0.00 | 0.00 | 73 | 1006.7 |
| 20260505173508 | 56 | 165 | 10.4 | 16.5 | 0.00 | 0.00 | 0.00 | 74 | 1006.7 |
| 20260505173014 | 56 | 197 | 11.3 | 16.5 | 0.00 | 0.00 | 0.00 | 74 | 1006.7 |
| 20260505172506 | 57 | 214 | 11.3 | 16.5 | 0.00 | 0.00 | 0.00 | 73 | 1006.8 |
| 20260505172009 | 57 | 190 | 10.4 | 16.5 | 0.00 | 0.00 | 0.00 | 73 | 1006.9 |
| 20260505171514 | 57 | 194 | 12.2 | 15.6 | 0.00 | 0.00 | 0.00 | 72 | 1006.8 |
| 20260505171007 | 57 | 178 | 10.4 | 14.8 | 0.00 | 0.00 | 0.00 | 72 | 1006.9 |
| 20260505170505 | 57 | 209 | 11.3 | 14.8 | 0.00 | 0.00 | 0.00 | 72 | 1007.0 |
| 20260505170006 | 57 | 190 | 9.6 | 13.9 | 0.00 | 0.00 | 0.00 | 73 | 1007.3 |
| 20260505165503 | 57 | 194 | 9.6 | 12.2 | 0.00 | 0.00 | 0.00 | 72 | 1007.3 |
| 20260505165007 | 58 | 190 | 8.7 | 15.6 | 0.00 | 0.00 | 0.00 | 72 | 1007.3 |
| 20260505164511 | 57 | 199 | 10.4 | 15.6 | 0.00 | 0.00 | 0.00 | 75 | 1007.3 |
| 20260505164008 | 56 | 188 | 11.3 | 15.6 | 0.00 | 0.00 | 0.00 | 75 | 1007.2 |
| 20260505163504 | 56 | 184 | 8.7 | 13.9 | 0.00 | 0.00 | 0.00 | 75 | 1007.1 |
| 20260505163018 | 56 | 192 | 8.7 | 13.9 | 0.00 | 0.00 | 0.00 | 75 | 1007.3 |
| 20260505162511 | 56 | 180 | 9.6 | 13.0 | 0.00 | 0.00 | 0.00 | 75 | 1007.5 |
| 20260505162007 | 56 | 167 | 9.6 | 13.0 | 0.00 | 0.00 | 0.00 | 74 | 1007.7 |
| 20260505161534 | 56 | 192 | 9.6 | 13.0 | 0.00 | 0.00 | 0.00 | 74 | 1007.9 |
| 20260505161005 | 57 | 191 | 8.7 | 13.0 | 0.00 | 0.00 | 0.00 | 74 | 1007.9 |
| 20260505160508 | 56 | 185 | 8.7 | 13.9 | 0.00 | 0.00 | 0.00 | 76 | 1008.1 |
| 20260505153017 | 56 | 153 | 7.0 | 13.0 | 0.00 | 0.00 | 0.00 | 78 | 1008.3 |
| 20260505152506 | 55 | 153 | 8.7 | 13.0 | 0.00 | 0.00 | 0.00 | 77 | 1008.4 |
| 20260505152012 | 56 | 155 | 7.8 | 11.3 | 0.00 | 0.00 | 0.00 | 75 | 1008.3 |
| 20260505151519 | 56 | 200 | 5.2 | 10.4 | 0.00 | 0.00 | 0.00 | 76 | 1008.4 |
| 20260505151011 | 56 | 169 | 6.1 | 14.8 | 0.00 | 0.00 | 0.00 | 76 | 1008.5 |
| 20260505150508 | 56 | 201 | 7.8 | 14.8 | 0.00 | 0.00 | 0.00 | 77 | 1008.5 |
| 20260505140508 | 55 | 187 | 10.4 | 15.6 | 0.00 | 0.00 | 0.00 | 78 | 1008.0 |
| 20260505125008 | 53 | 186 | 7.0 | 10.4 | 0.00 | 0.00 | 0.00 | 81 | 1008.6 |
| 20260505124523 | 53 | 168 | 5.2 | 8.7 | 0.00 | 0.00 | 0.00 | 81 | 1008.5 |
| 20260505124008 | 53 | 194 | 5.2 | 9.6 | 0.00 | 0.00 | 0.00 | 81 | 1008.4 |
| 20260505123510 | 52 | 181 | 6.1 | 10.4 | 0.00 | 0.00 | 0.00 | 82 | 1008.5 |
| 20260505123023 | 52 | 178 | 7.0 | 10.4 | 0.00 | 0.00 | 0.00 | 82 | 1008.5 |
| 20260505122508 | 52 | 165 | 7.8 | 10.4 | 0.00 | 0.00 | 0.00 | 81 | 1008.5 |
| 20260505122011 | 52 | 188 | 5.2 | 10.4 | 0.00 | 0.00 | 0.00 | 82 | 1008.6 |
| 20260505121528 | 52 | 180 | 7.0 | 11.3 | 0.00 | 0.00 | 0.00 | 82 | 1008.7 |
| 20260505121008 | 51 | 178 | 7.8 | 11.3 | 0.00 | 0.00 | 0.00 | 82 | 1008.6 |
| 20260505120512 | 51 | 167 | 6.1 | 8.7 | 0.00 | 0.00 | 0.00 | 81 | 1008.5 |
| 20260505120019 | 51 | 178 | 5.2 | 7.8 | 0.00 | 0.00 | 0.00 | 82 | 1008.6 |
| 20260505115506 | 51 | 195 | 5.2 | 7.8 | 0.00 | 0.00 | 0.00 | 82 | 1008.7 |
| 20260505115008 | 51 | 193 | 6.1 | 7.8 | 0.00 | 0.00 | 0.00 | 82 | 1008.7 |
| 20260505114523 | 51 | 179 | 5.2 | 7.8 | 0.00 | 0.00 | 0.00 | 82 | 1008.7 |
| 20260505114011 | 51 | 191 | 6.1 | 8.7 | 0.00 | 0.00 | 0.00 | 82 | 1008.7 |
| 20260505113502 | 51 | 192 | 6.1 | 8.7 | 0.00 | 0.00 | 0.00 | 82 | 1008.8 |
| 20260505113006 | 50 | 188 | 5.2 | 7.0 | 0.00 | 0.00 | 0.00 | 82 | 1008.8 |
| 20260505112505 | 50 | 188 | 5.2 | 7.0 | 0.00 | 0.00 | 0.00 | 82 | 1008.8 |
| 20260505112003 | 50 | 195 | 4.3 | 7.0 | 0.00 | 0.00 | 0.00 | 82 | 1008.7 |
| 20260505111510 | 50 | 182 | 5.2 | 7.0 | 0.00 | 0.00 | 0.00 | 81 | 1008.6 |
| 20260505111006 | 50 | 196 | 4.3 | 6.1 | 0.00 | 0.00 | 0.00 | 82 | 1008.7 |
| 20260505110510 | 50 | 207 | 4.3 | 6.1 | 0.00 | 0.00 | 0.00 | 82 | 1008.6 |